GW6747 Weather Reports


Display with metric or nautical units.
time (UTC)temp
F
wind
direction
speed
MPH
gust
MPH
rain 1hr
in
rain 24hr
in
rain mn
in
humidity
%
barometer
mb
20260505003846 68 282 4.0 12.0 0.00 0.00 0.00 61 1009.5
20260505003344 68 287 5.0 9.0 0.00 0.00 0.00 61 1009.5
20260505002839 68 268 4.0 6.0 0.00 0.00 0.00 65 1009.3
20260505002337 68 293 4.0 8.0 0.00 0.00 0.00 64 1009.4
20260505001835 68 283 5.0 8.0 0.00 0.00 0.00 64 1009.3
20260505001332 68 278 6.0 11.0 0.00 0.00 0.00 61 1009.4
20260505000829 68 274 4.0 9.0 0.00 0.00 0.00 62 1009.3
20260505000327 69 261 5.0 9.0 0.00 0.00 0.00 62 1009.4
20260504235823 70 277 4.0 6.0 0.00 0.00 0.00 62 1009.3
20260504235320 71 275 4.0 6.0 0.00 0.00 0.00 60 1009.2
20260504234817 70 316 4.0 5.0 0.00 0.00 0.00 61 1009.5
20260504234315 69 268 4.0 6.0 0.00 0.00 0.00 61 1009.5
20260504233811 70 294 4.0 9.0 0.00 0.00 0.00 60 1009.7
20260504233306 70 268 6.0 10.0 0.00 0.00 0.00 57 1009.5
20260504232803 70 261 3.0 7.0 0.00 0.00 0.00 59 1009.5
20260504232301 71 265 4.0 9.0 0.00 0.00 0.00 59 1009.5
20260504231757 71 284 6.0 9.0 0.00 0.00 0.00 54 1009.5
20260504231254 72 338 4.0 9.0 0.00 0.00 0.00 54 1009.4
20260504230750 72 269 6.0 7.0 0.00 0.00 0.00 54 1009.3
20260504230248 72 279 7.0 8.0 0.00 0.00 0.00 53 1009.4
20260504225747 74 309 3.0 8.0 0.00 0.00 0.00 51 1009.5
20260504225242 74 274 4.0 6.0 0.00 0.00 0.00 49 1009.4
20260504224740 74 286 4.0 6.0 0.00 0.00 0.00 49 1009.3
20260504224237 74 294 3.0 5.0 0.00 0.00 0.00 43 1009.6
20260504223733 73 24 4.0 6.0 0.00 0.00 0.00 47 1009.4
20260504223229 72 20 4.0 4.0 0.00 0.00 0.00 47 1009.5
20260504222726 72 34 5.0 6.0 0.00 0.00 0.00 46 1009.5
20260504222223 73 34 4.0 5.0 0.00 0.00 0.00 45 1009.7
20260504221720 73 9 4.0 5.0 0.00 0.00 0.00 45 1009.7
20260504221217 72 15 4.0 5.0 0.00 0.00 0.00 44 1009.9
20260504220714 72 55 5.0 5.0 0.00 0.00 0.00 44 1009.8
20260504220211 72 30 5.0 5.0 0.00 0.00 0.00 49 1009.8
20260504215708 71 25 3.0 5.0 0.00 0.00 0.00 46 1009.8
20260504215205 71 19 4.0 5.0 0.00 0.00 0.00 48 1010.0
20260504214700 71 38 4.0 5.0 0.00 0.00 0.00 50 1010.0
20260504214157 71 46 5.0 6.0 0.00 0.00 0.00 48 1010.1
20260504213654 71 47 5.0 5.0 0.00 0.00 0.00 46 1010.2
20260504213151 72 42 4.0 6.0 0.00 0.00 0.00 54 1010.2
20260504212647 73 43 4.0 6.0 0.00 0.00 0.00 50 1010.1
20260504212144 73 315 2.0 3.0 0.00 0.00 0.00 50 1010.3
20260504211641 73 7 3.0 6.0 0.00 0.00 0.00 47 1010.2
20260504211137 72 328 2.0 5.0 0.00 0.00 0.00 51 1010.2
20260504210636 71 301 2.0 4.0 0.00 0.00 0.00 55 1010.3
20260504210132 71 18 2.0 5.0 0.00 0.00 0.00 59 1010.5
20260504205629 70 32 4.0 5.0 0.00 0.00 0.00 58 1010.4
20260504205126 71 19 4.0 5.0 0.00 0.00 0.00 64 1010.3
20260504204625 71 20 4.0 5.0 0.00 0.00 0.00 57 1010.0
20260504204124 71 19 4.0 6.0 0.00 0.00 0.00 54 1010.2
20260504203622 70 31 6.0 7.0 0.00 0.00 0.00 52 1010.2
20260504203120 70 25 5.0 6.0 0.00 0.00 0.00 59 1010.4
20260504202620 70 31 6.0 6.0 0.00 0.00 0.00 55 1010.4
20260504202117 69 33 5.0 5.0 0.00 0.00 0.00 56 1010.5
20260504201614 69 23 5.0 5.0 0.00 0.00 0.00 61 1010.4
20260504201112 69 18 4.0 4.0 0.00 0.00 0.00 58 1010.4
20260504200608 68 25 4.0 6.0 0.00 0.00 0.00 56 1010.5
20260504200105 68 19 4.0 5.0 0.00 0.00 0.00 60 1010.3
20260504195601 67 38 4.0 6.0 0.00 0.00 0.00 62 1010.5
20260504195057 67 16 4.0 6.0 0.00 0.00 0.00 65 1010.3
20260504194554 66 11 4.0 6.0 0.00 0.00 0.00 66 1010.5
20260504194049 66 37 4.0 6.0 0.00 0.00 0.00 68 1010.6
20260504193546 66 11 4.0 6.0 0.00 0.00 0.00 66 1010.6
20260504193045 66 42 6.0 10.0 0.00 0.00 0.00 67 1010.4
20260504192543 66 12 6.0 8.0 0.00 0.00 0.00 66 1010.6
20260504192041 66 7 4.0 8.0 0.00 0.00 0.00 65 1010.8
20260504191538 65 18 4.0 7.0 0.00 0.00 0.00 65 1010.4
20260504191034 66 26 6.0 9.0 0.00 0.00 0.00 64 1010.6
20260504190531 67 30 5.0 6.0 0.00 0.00 0.00 62 1010.6
20260504190027 67 41 6.0 7.0 0.00 0.00 0.00 61 1010.4
20260504185524 67 36 5.0 7.0 0.00 0.00 0.00 61 1010.6
20260504185020 66 31 5.0 7.0 0.00 0.00 0.00 62 1010.6
20260504184516 66 34 5.0 6.0 0.00 0.00 0.00 63 1010.8
20260504184011 66 29 4.0 6.0 0.00 0.00 0.00 60 1010.7
20260504183509 66 43 6.0 7.0 0.00 0.00 0.00 59 1010.6
20260504183007 66 25 5.0 6.0 0.00 0.00 0.00 60 1010.5
20260504182503 66 36 5.0 6.0 0.00 0.00 0.00 60 1010.5
20260504182001 66 33 6.0 6.0 0.00 0.00 0.00 58 1010.8
20260504181457 66 37 5.0 5.0 0.00 0.00 0.00 63 1010.8
20260504180956 66 24 5.0 6.0 0.00 0.00 0.00 63 1010.8
20260504180455 65 34 4.0 4.0 0.00 0.00 0.00 67 1010.9
20260504175953 64 18 4.0 7.0 0.00 0.00 0.00 66 1010.7
20260504175450 63 2 5.0 6.0 0.00 0.00 0.00 69 1010.7
20260504174947 64 42 5.0 6.0 0.00 0.00 0.00 65 1010.5
20260504174444 65 12 5.0 9.0 0.00 0.00 0.00 64 1010.6
20260504173942 66 37 6.0 6.0 0.00 0.00 0.00 64 1010.5
20260504173438 67 34 4.0 8.0 0.00 0.00 0.00 64 1010.4
20260504172936 66 36 5.0 6.0 0.00 0.00 0.00 62 1010.5
20260504172431 65 48 4.0 6.0 0.00 0.00 0.00 66 1010.6
20260504171928 64 31 4.0 5.0 0.00 0.00 0.00 68 1010.7
20260504171425 64 43 5.0 6.0 0.00 0.00 0.00 69 1010.7
20260504170922 63 35 4.0 5.0 0.00 0.00 0.00 72 1010.6
20260504170418 61 30 4.0 6.0 0.00 0.00 0.00 74 1010.6
20260504160337 60 40 7.0 8.0 0.00 0.00 0.00 78 1010.4
20260504150802 59 15 4.0 5.0 0.00 0.00 0.00 81 1010.2
20260504150259 60 40 5.0 5.0 0.00 0.00 0.00 80 1010.2
20260504141229 58 29 4.0 6.0 0.00 0.00 0.00 82 1009.7
20260504140725 57 38 5.0 6.0 0.00 0.00 0.00 83 1009.6
20260504140220 57 35 5.0 7.0 0.00 0.00 0.00 84 1009.7
20260504130649 52 13 0.0 2.0 0.00 0.00 0.00 88 1009.5
20260504130146 52 21 2.0 2.0 0.00 0.00 0.00 87 1009.4
20260504120110 51 24 1.0 1.0 0.00 0.00 0.00 87 1009.4
20260504110537 52 329 0.0 1.0 0.00 0.00 0.00 88 1009.4
20260504100459 52 19 0.0 1.0 0.00 0.00 0.00 88 1009.3
20260504081857 54 13 0.0 1.0 0.00 0.00 0.00 79 1009.1
20260504081354 54 12 1.0 2.0 0.00 0.00 0.00 78 1009.2
20260504080850 54 5 0.0 1.0 0.00 0.00 0.00 78 1009.1
20260504080348 54 352 0.0 1.0 0.00 0.00 0.00 79 1009.3
20260504070315 56 333 0.0 2.0 0.00 0.00 0.00 74 1009.2
20260504060235 59 343 1.0 2.0 0.00 0.00 0.00 65 1009.2
20260504050703 62 330 0.0 2.0 0.00 0.00 0.00 61 1009.1
20260504050200 62 302 1.0 2.0 0.00 0.00 0.00 60 1009.2
20260504045658 62 300 1.0 2.0 0.00 0.00 0.00 59 1009.2
20260504045157 62 301 0.0 2.0 0.00 0.00 0.00 59 1009.2
20260504044655 62 289 2.0 2.0 0.00 0.00 0.00 60 1009.3
20260504044152 62 293 0.0 3.0 0.00 0.00 0.00 60 1009.2
20260504043649 62 284 1.0 2.0 0.00 0.00 0.00 61 1009.2
20260504043146 62 294 0.0 2.0 0.00 0.00 0.00 63 1009.3
20260504042644 61 293 0.0 2.0 0.00 0.00 0.00 64 1009.2
20260504042140 61 322 0.0 1.0 0.00 0.00 0.00 66 1009.2
20260504041636 61 259 0.0 2.0 0.00 0.00 0.00 67 1009.2
20260504041132 62 297 1.0 2.0 0.00 0.00 0.00 67 1009.2
20260504040630 62 283 1.0 2.0 0.00 0.00 0.00 65 1009.1
20260504040127 62 286 2.0 2.0 0.00 0.00 0.00 66 1009.2
20260504035623 62 298 0.0 2.0 0.00 0.00 0.00 65 1009.0
20260504035120 63 303 0.0 2.0 0.00 0.00 0.00 65 1009.1
20260504034618 63 322 2.0 2.0 0.00 0.00 0.00 64 1009.0
20260504034114 64 323 0.0 2.0 0.00 0.00 0.00 64 1009.2
20260504033612 65 305 2.0 2.0 0.00 0.00 0.00 62 1009.0
20260504033109 66 303 2.0 4.0 0.00 0.00 0.00 60 1009.0
20260504032606 68 304 3.0 3.0 0.00 0.00 0.00 51 1009.0
20260504032103 68 293 2.0 3.0 0.00 0.00 0.00 51 1008.9
20260504031600 67 276 2.0 4.0 0.00 0.00 0.00 51 1009.0
20260504031056 67 294 2.0 4.0 0.00 0.00 0.00 52 1009.1
20260504030553 67 277 2.0 3.0 0.00 0.00 0.00 55 1009.0
20260504030049 66 274 0.0 3.0 0.00 0.00 0.00 61 1009.1
20260504025547 65 262 1.0 2.0 0.00 0.00 0.00 67 1009.1
20260504025044 66 284 2.0 4.0 0.00 0.00 0.00 64 1009.2
20260504024541 67 282 4.0 5.0 0.00 0.00 0.00 58 1009.3
20260504024038 68 281 4.0 4.0 0.00 0.00 0.00 60 1009.3
20260504023534 70 280 3.0 5.0 0.00 0.00 0.00 56 1009.2
20260504023030 71 278 2.0 5.0 0.00 0.00 0.00 48 1009.3
20260504022526 71 278 3.0 6.0 0.00 0.00 0.00 49 1009.1
20260504022023 71 275 5.0 9.0 0.00 0.00 0.00 50 1009.1
20260504021520 71 292 6.0 7.0 0.00 0.00 0.00 51 1009.2
20260504021017 72 265 8.0 9.0 0.00 0.00 0.00 46 1009.3
20260504020514 72 278 5.0 8.0 0.00 0.00 0.00 47 1009.4
20260504020011 73 285 5.0 8.0 0.00 0.00 0.00 46 1009.5
20260504015507 73 277 5.0 9.0 0.00 0.00 0.00 45 1009.2
20260504015003 74 282 6.0 9.0 0.00 0.00 0.00 44 1009.5
20260504014459 74 276 6.0 9.0 0.00 0.00 0.00 42 1009.4
20260504013956 75 282 7.0 11.0 0.00 0.00 0.00 40 1009.5
20260504013454 75 280 5.0 12.0 0.00 0.00 0.00 39 1009.3
20260504012950 75 276 7.0 9.0 0.00 0.00 0.00 40 1009.4
20260504012448 74 296 6.0 11.0 0.00 0.00 0.00 41 1009.3
20260504011946 74 266 8.0 11.0 0.00 0.00 0.00 42 1009.6
20260504011442 74 276 10.0 11.0 0.00 0.00 0.00 41 1009.6
20260504010938 74 254 6.0 14.0 0.00 0.00 0.00 42 1009.7
20260504010434 74 295 7.0 11.0 0.00 0.00 0.00 43 1009.7
20260504005930 74 278 7.0 14.0 0.00 0.00 0.00 43 1009.7
20260504005427 73 277 8.0 11.0 0.00 0.00 0.00 45 1009.9
20260504004925 73 282 4.0 10.0 0.00 0.00 0.00 47 1009.8
20260504004422 71 277 8.0 11.0 0.00 0.00 0.00 51 1009.9